Regional Weather Roundup
Issued by NWS Mobile, AL

Home | Current Version | Previous Version | Text Only | Print | Product List | Glossary On
Versions: 1 2 3 4 5 6 7 8 9 10 11 12 13 14 15 16 17 18 19 20 21 22 23 24 25 26 27 28
000
ASUS44 KMOB 260012
RWRMOB
REGIONAL WEATHER ROUNDUP
NATIONAL WEATHER SERVICE MOBILE AL
700 PM CDT SUN SEP 25 2016

NOTE: "FAIR" INDICATES FEW OR NO CLOUDS BELOW 12,000 FEET WITH NO
      SIGNIFICANT WEATHER AND/OR OBSTRUCTIONS TO VISIBILITY.

  * THESE STATIONS ARE PART OF THE UNIVERSITY OF SOUTH ALABAMA
    MESONET AND ARE NOT UNDER NWS OR FAA QUALITY CONTROL.

ALZ061>064-260100-
COASTAL ALABAMA

CITY           SKY/WX    TMP DP  RH WIND       PRES   REMARKS
MOBILE REG APT MOCLDY    74  72  93 CALM      29.98R
6HR MIN TEMP:  74; 6HR MAX TEMP:  90; 6HR PCP:  0.01;

BROOKLEY FIELD MOCLDY    77  70  79 CALM      29.99R
6HR MIN TEMP:  77; 6HR MAX TEMP:  91; 6HR PCP: TRACE;

USA CAMPUS*    NOT AVBL
DOG RIVER*     NOT AVBL


CITY           SKY/WX    TMP DP  RH WIND       PRES   REMARKS
MOUNT VERNON*  NOT AVBL
SARALAND*      NOT AVBL
BAY MINETTE*   NOT AVBL
LOXLEY*        NOT AVBL
ROBERTSDALE*   NOT AVBL
FAIRHOPE*      NOT AVBL
ELBERTA*       NOT AVBL
FOLEY*         NOT AVBL
GRAND BAY*     NOT AVBL
DAUPHIN ISLND* NOT AVBL
BON SCOUR NWR* NOT AVBL
GULF SHORES    CLOUDY    76  73  91 CALM      29.96S

$$

ALZ051>060-260100-
INTERIOR SOUTHWEST AND SOUTH CENTRAL ALABAMA

CITY           SKY/WX    TMP DP  RH WIND       PRES   REMARKS
GREENVILLE     NOT AVBL
EVERGREEN      CLOUDY    78  71  79 CALM      29.98R
6HR MIN TEMP:  77; 6HR MAX TEMP:  95; 6HR PCP: TRACE;

CASTLEBERRY*   NOT AVBL
ATMORE*        NOT AVBL
DIXIE*         NOT AVBL
ANDALUSIA/OPP  PTCLDY    76  71  85 CALM      29.99R
6HR MIN TEMP:  76; 6HR MAX TEMP:  98; 6HR PCP:  0.29;

ANDALUSIA*     NOT AVBL
FLORALA APT    NOT AVBL
FLORALA*       NOT AVBL

$$

FLZ001>006-260100-
WESTERN FLORIDA PANHANDLE

CITY           SKY/WX    TMP DP  RH WIND       PRES   REMARKS
PENSACOLA      PTCLDY    80  71  74 NE5       29.96S
6HR MIN TEMP:  80; 6HR MAX TEMP:  94;

NAS PENSACOLA  CLOUDY    77  71  82 NW6       29.96R
6HR MIN TEMP:  77; 6HR MAX TEMP:  92; 6HR PCP: TRACE;

MILTON         CLEAR     72  71  97 SE3       29.98R
6HR MIN TEMP:  72; 6HR MAX TEMP:  94; 6HR PCP:  0.76;

WHTNG S FIELD  MOCLDY    76  73  91 CALM      29.98R
6HR MIN TEMP:  75; 6HR MAX TEMP:  97; 6HR PCP:  0.16;



CITY           SKY/WX    TMP DP  RH WIND       PRES   REMARKS
WALNUT HILL*   NOT AVBL
JAY*           NOT AVBL
DUKE FIELD     PTCLDY    78  73  84 NE5       29.98R
CRESTVIEW      PTCLDY    78  74  87 E6        30.00R
6HR MIN TEMP:  77; 6HR MAX TEMP:  98; 6HR PCP:  0.23;

VALPARAISO     PTCLDY    83  73  71 E8        29.98R
6HR MIN TEMP:  83; 6HR MAX TEMP:  93;

DESTIN         PTCLDY    84  74  71 NE6       29.98R
6HR MIN TEMP:  84; 6HR MAX TEMP:  92;


$$

MSZ076-079-260100-
INTERIOR SOUTHEAST MISSISSIPPI

CITY           SKY/WX    TMP DP  RH WIND       PRES   REMARKS
LEAKESVILLE*   NOT AVBL
AGRICOLA*      NOT AVBL

$$

MARINE OBSERVATIONS

STATION/POSITION TIME  TEMP    WIND        PRES    WAVE
                       AIR SEA DIR/SP/G            HT/PER
                 (UTC) (F)     (DEG/KT/KT) (MB)    (FT/S)
PASCAGOULA       2300   87     270/  4/  5 1014.0F
PETIT BOIS ISLND 2300   86     270/  5/  6 1015.0S
GRAND BAY        2200   82      10/  5     1016.0R
KATRINA CUT      2300   83      30/  7     1014.9F
CEDAR POINT      2300   83      40/  7     1014.2F
E DAUPHIN ISLAND 0000   85     350/  7/  8 1014.6R
MIDDLE BAY LIGHT 2300   83      90/  5     1014.2S
USCG MOBILE BAY  2300   79 86  300/  4/  5 1015.0F
STATE DOCKS      2300   81                 1014.3F
MEAHER PARK      2300   76      40/  2     1013.9F
WEEKS BAY        2200   86                   N/A
FORT MORGAN      2300   84      10/  9/ 12 1013.9F
12 S ORANGE BCH  2350   84 87   20/  2/  2 1014.6S   1
PENSACOLA BAY    2300   84 87   90/  1/  2 1014.6S
64 S DAUPHIN ISL 2300   86 86  260/  2/  4 1014.5S
67 S FORT MORGAN 2330   83        CALM     1014.6S

$$

SELECTED LOCATIONS ACROSS THE REGION

CITY           SKY/WX    TMP DP  RH WIND       PRES   REMARKS
NEW ORLEANS    MOCLDY    87  69  54 S6        29.98R
GULFPORT       CLOUDY    85  71  63 SW5       29.95S
PASCAGOULA AP  CLOUDY    78  75  90 CALM      29.97R
PASCAGOULA*    NOT AVBL
HATTIESBURG    LGT RAIN  74  69  85 W10       30.02R
LAUREL         CLOUDY    70  66  88 SW12G22   30.01R
MERIDIAN       CLEAR     80  68  66 SW3       29.96S
JACKSON        CLOUDY    79  69  71 SE3       29.97S
MONTGOMERY     PTCLDY    84  66  54 SE9       29.99R
TROY           CLEAR     74  72  93 SE5       30.00R
KINSTON*       NOT AVBL
GENEVA*        NOT AVBL
ASHFORD*       NOT AVBL
DOTHAN         MOCLDY    77  73  87 SE5       30.04R
PANAMA CITY    NOT AVBL

$$





USA.gov is the U.S. government's official web portal to all federal, state and local government web resources and services.